This is the latest recevied weather packets stored in our database for station/object WX9WTF. If no packets are shown the sender has not sent any weather packets the latest 10 day(s).
| Time | Temp. | Humidity | Pressure | Rain* | Wind** | Luminosity | Snow |
|---|---|---|---|---|---|---|---|
| 1777784617 | 5.56° C | 94% | 1018.9 hPa | 0 mm | - | 0 W/m² | - |
| 1777784315 | 5.56° C | 94% | 1018.9 hPa | 0 mm | - | 0 W/m² | - |
| 1777784012 | 5° C | 93% | 1018.7 hPa | 0 mm | - | 0 W/m² | - |
| 1777783708 | 5.56° C | 93% | 1019 hPa | 0 mm | - | 0 W/m² | - |
| 1777783406 | 5.56° C | 92% | 1019 hPa | 0 mm | - | 0 W/m² | - |
| 1777783103 | 5.56° C | 92% | 1019 hPa | 0 mm | - | 0 W/m² | - |
| 1777782800 | 6.11° C | 92% | 1019.2 hPa | 0 mm | - | 0 W/m² | - |
| 1777782496 | 6.11° C | 91% | 1019.1 hPa | 0 mm | - | 0 W/m² | - |
| 1777782193 | 5.56° C | 90% | 1019.2 hPa | 0 mm | - | 0 W/m² | - |
| 1777781889 | 5.56° C | 90% | 1019.1 hPa | 0 mm | - | 0 W/m² | - |
| 1777781586 | 5.56° C | 89% | 1019.2 hPa | 0 mm | - | 0 W/m² | - |
| 1777781284 | 5.56° C | 89% | 1018.9 hPa | 0 mm | - | 0 W/m² | - |
| 1777780981 | 6.11° C | 89% | 1019.1 hPa | 0 mm | - | 0 W/m² | - |
| 1777780678 | 6.11° C | 88% | 1019.2 hPa | 0 mm | - | 0 W/m² | - |
| 1777780375 | 6.67° C | 87% | 1019.1 hPa | 0 mm | - | 0 W/m² | - |
| 1777780073 | 6.67° C | 87% | 1019.5 hPa | 0 mm | - | 0 W/m² | - |
| 1777779769 | 6.67° C | 86% | 1019.4 hPa | 0 mm | - | 0 W/m² | - |
| 1777779467 | 7.22° C | 86% | 1019.4 hPa | 0 mm | - | 0 W/m² | - |
| 1777779164 | 7.22° C | 85% | 1019.6 hPa | 0 mm | - | 0 W/m² | - |
| 1777778862 | 7.22° C | 85% | 1019.4 hPa | 0 mm | - | 0 W/m² | - |
| 1777778561 | 7.78° C | 84% | 1019.3 hPa | 0 mm | - | 0 W/m² | - |
| 1777778257 | 7.78° C | 82% | 1019.3 hPa | 0 mm | - | 0 W/m² | - |
| 1777777956 | 7.78° C | 81% | 1019.5 hPa | 0 mm | - | 0 W/m² | - |
| 1777777652 | 8.33° C | 80% | 1019.5 hPa | 0 mm | - | 0 W/m² | - |
| 1777777348 | 8.33° C | 79% | 1019.5 hPa | 0 mm | - | 0 W/m² | - |
* Rain latest hour (hover to see other rain measurements)
** Current wind speed in m/s (hover to see current wind gust speed)